FW0267 Weather Reports


time (UTC)temp
C
wind
direction
speed
KPH
gust
KPH
rain 1hr
cm
rain 24hr
cm
rain mn
cm
humidity
%
barometer
mb
20260902135518 -17 119 1.6 4.8 0.00 0.00 0.00 1018.5
20260902135014 -17 39 0.0 4.8 0.00 0.00 0.00 1018.5
20260902134512 -17 111 0.0 1.6 0.00 0.00 0.00 1018.5
20260902134010 -17 105 0.0 1.6 0.00 0.00 0.00 1018.4
20260902133508 -17 105 0.0 1.6 0.00 0.00 0.00 1018.4
20260902133007 -17 101 0.0 3.2 0.00 0.00 0.00 1018.3
20260902132507 -17 38 0.0 3.2 0.00 0.00 0.00 1018.2
20260902132003 -17 17 0.0 4.8 0.00 0.00 0.00 1018.4
20260902131502 -17 26 0.0 4.8 0.00 0.00 0.00 1018.3
20260902131001 -17 64 0.0 3.2 0.00 0.00 0.00 1018.2
20260902130600 -17 69 0.0 3.2 0.00 0.00 0.00 1018.2
20260902130059 -17 28 0.0 3.2 0.00 0.00 0.00 1018.3
20260902125557 -17 112 0.0 3.2 0.00 0.00 0.00 1018.3
20260902125056 -17 112 0.0 0.0 0.00 0.00 0.00 1018.3
20260902124557 -17 112 0.0 3.2 0.00 0.00 0.00 1018.3
20260902124055 -17 112 0.0 1.6 0.00 0.00 0.00 1018.3
20260902123552 -17 112 0.0 1.6 0.00 0.00 0.00 1018.3
20260902123054 -17 118 0.0 1.6 0.00 0.00 0.00 1018.3
20260902122552 -17 123 0.0 1.6 0.00 0.00 0.00 1018.3
20260902122046 -17 126 0.0 1.6 0.00 0.00 0.00 1018.3
20260902121549 -17 126 0.0 1.6 0.00 0.00 0.00 1018.3
20260902121043 -17 126 0.0 1.6 0.00 0.00 0.00 1018.2
20260902120545 -17 117 0.0 1.6 0.00 0.00 0.00 1018.2
20260902120041 -17 110 0.0 0.0 0.00 0.00 0.00 1018.3
20260902115543 -17 110 0.0 0.0 0.00 0.00 0.00 1018.2
20260902115038 -17 110 0.0 0.0 0.00 0.00 0.00 1018.2
20260902114603 -17 110 0.0 1.6 0.00 0.00 0.00 1018.1
20260902114036 -17 110 0.0 1.6 0.00 0.00 0.00 1018.1
20260902113533 -17 113 0.0 1.6 0.00 0.00 0.00 1018.1
20260902113041 -17 122 0.0 1.6 0.00 0.00 0.00 1018.2
20260902112530 -17 127 0.0 1.6 0.00 0.00 0.00 1018.1
20260902112029 -17 136 0.0 1.6 0.00 0.00 0.00 1018.1
20260902111527 -17 122 0.0 1.6 0.00 0.00 0.00 1018.1
20260902111026 -17 128 0.0 0.0 0.00 0.00 0.00 1018.0
20260902110525 -17 128 0.0 0.0 0.00 0.00 0.00 1018.1
20260902110036 -17 128 0.0 0.0 0.00 0.00 0.00 1018.2
20260902105525 -17 128 0.0 0.0 0.00 0.00 0.00 1018.2
20260902105020 -17 128 0.0 1.6 0.00 0.00 0.00 1018.0
20260902104532 -17 128 0.0 1.6 0.00 0.00 0.00 1017.9
20260902104018 -17 128 0.0 1.6 0.00 0.00 0.00 1017.9
20260902103516 -17 134 0.0 1.6 0.00 0.00 0.00 1017.8
20260902103021 -17 140 0.0 1.6 0.00 0.00 0.00 1017.8
20260902102516 -17 140 0.0 3.2 0.00 0.00 0.00 1017.8
20260902102011 -17 118 0.0 3.2 0.00 0.00 0.00 1017.7
20260902101509 -17 114 0.0 1.6 0.00 0.00 0.00 1017.6
20260902101008 -17 103 0.0 1.6 0.00 0.00 0.00 1017.6
20260902100507 -17 101 0.0 0.0 0.00 0.00 0.00 1017.5
20260902100008 -17 101 0.0 0.0 0.00 0.00 0.00 1017.4
20260902095505 -17 101 0.0 0.0 0.00 0.00 0.00 1017.6
20260902095003 -17 101 0.0 1.6 0.00 0.00 0.00 1017.4
20260902094501 -17 101 0.0 1.6 0.00 0.00 0.00 1017.2
20260902094100 -17 101 0.0 1.6 0.00 0.00 0.00 1017.3
20260902093557 -17 102 0.0 1.6 0.00 0.00 0.00 1017.4
20260902093108 -17 102 0.0 1.6 0.00 0.00 0.00 1017.4
20260902092555 -17 104 0.0 1.6 0.00 0.00 0.00 1017.4
20260902092057 -17 101 0.0 1.6 0.00 0.00 0.00 1017.4
20260902091556 -17 106 0.0 1.6 0.00 0.00 0.00 1017.3
20260902091053 -17 103 0.0 0.0 0.00 0.00 0.00 1017.3
20260902090551 -17 103 0.0 0.0 0.00 0.00 0.00 1017.3
20260902090056 -17 103 0.0 0.0 0.00 0.00 0.00 1017.2
20260902085547 -17 103 0.0 0.0 0.00 0.00 0.00 1017.3
20260902085047 -17 103 0.0 1.6 0.00 0.00 0.00 1017.3
20260902084543 -17 103 0.0 1.6 0.00 0.00 0.00 1017.3
20260902084043 -17 104 0.0 1.6 0.00 0.00 0.00 1017.3
20260902083539 -17 104 0.0 0.0 0.00 0.00 0.00 1017.2
20260902083044 -17 104 0.0 1.6 0.00 0.00 0.00 1017.2
20260902082537 -17 104 0.0 1.6 0.00 0.00 0.00 1017.2
20260902082036 -17 107 0.0 1.6 0.00 0.00 0.00 1017.2
20260902081541 -17 105 0.0 1.6 0.00 0.00 0.00 1017.2
20260902081034 -17 102 0.0 0.0 0.00 0.00 0.00 1017.1
20260902080535 -17 102 0.0 0.0 0.00 0.00 0.00 1017.1
20260902080036 -17 102 0.0 0.0 0.00 0.00 0.00 1017.1
20260902075533 -17 102 0.0 0.0 0.00 0.00 0.00 1016.9
20260902075035 -17 102 0.0 1.6 0.00 0.00 0.00 1017.0
20260902074543 -17 102 0.0 1.6 0.00 0.00 0.00 1017.0
20260902074032 -17 102 0.0 1.6 0.00 0.00 0.00 1017.0
20260902073530 -17 103 0.0 1.6 0.00 0.00 0.00 1017.0
20260902073028 -17 104 0.0 1.6 0.00 0.00 0.00 1017.0
20260902072526 -17 107 0.0 1.6 0.00 0.00 0.00 1017.1
20260902072026 -17 107 0.0 1.6 0.00 0.00 0.00 1017.2
20260902071525 -17 107 0.0 1.6 0.00 0.00 0.00 1017.2
20260902071023 -17 107 0.0 0.0 0.00 0.00 0.00 1017.1
20260902070521 -17 107 0.0 1.6 0.00 0.00 0.00 1017.1
20260902070021 -17 107 0.0 1.6 0.00 0.00 0.00 1017.2
20260902065519 -17 105 0.0 0.0 0.00 0.00 0.00 1017.1
20260902065018 -17 105 0.0 0.0 0.00 0.00 0.00 1017.1
20260902064522 -17 105 0.0 1.6 0.00 0.00 0.00 1017.0
20260902064015 -17 105 0.0 1.6 0.00 0.00 0.00 1016.9
20260902063512 -17 105 0.0 1.6 0.00 0.00 0.00 1016.9
20260902063018 -17 105 0.0 1.6 0.00 0.00 0.00 1016.9
20260902062510 -17 105 0.0 1.6 0.00 0.00 0.00 1017.0
20260902062008 -17 105 0.0 1.6 0.00 0.00 0.00 1017.0
20260902061516 -17 109 0.0 1.6 0.00 0.00 0.00 1016.9
20260902061005 -17 99 0.0 1.6 0.00 0.00 0.00 1016.8
20260902060503 -17 99 0.0 1.6 0.00 0.00 0.00 1016.9
20260902060002 -17 102 0.0 0.0 0.00 0.00 0.00 1016.9
20260902055503 -17 102 0.0 0.0 0.00 0.00 0.00 1016.9
20260902055100 -17 102 0.0 0.0 0.00 0.00 0.00 1017.0
20260902054600 -17 102 0.0 1.6 0.00 0.00 0.00 1016.9
20260902054056 -17 102 0.0 1.6 0.00 0.00 0.00 1017.0
20260902053555 -17 116 0.0 1.6 0.00 0.00 0.00 1017.0
20260902053102 -17 103 0.0 1.6 0.00 0.00 0.00 1017.0
20260902052551 -17 100 0.0 1.6 0.00 0.00 0.00 1017.0
20260902052050 -17 100 0.0 3.2 0.00 0.00 0.00 1017.1
20260902051554 -17 101 0.0 3.2 0.00 0.00 0.00 1017.1
20260902051048 -17 114 0.0 0.0 0.00 0.00 0.00 1017.2
20260902050547 -17 114 0.0 1.6 0.00 0.00 0.00 1017.1
20260902050047 -17 114 0.0 1.6 0.00 0.00 0.00 1017.0
20260902045543 -17 117 0.0 1.6 0.00 0.00 0.00 1017.0
20260902045042 -17 119 0.0 1.6 0.00 0.00 0.00 1017.0
20260902044540 -17 123 0.0 1.6 0.00 0.00 0.00 1016.9
20260902044039 -17 128 0.0 1.6 0.00 0.00 0.00 1016.9
20260902043538 -17 128 0.0 1.6 0.00 0.00 0.00 1016.9
20260902043036 -17 126 0.0 3.2 0.00 0.00 0.00 1016.9
20260902042536 -17 132 0.0 3.2 0.00 0.00 0.00 1016.8
20260902042034 -17 127 0.0 3.2 0.00 0.00 0.00 1016.8
20260902041536 -17 140 0.0 1.6 0.00 0.00 0.00 1016.8
20260902041031 -17 157 0.0 1.6 0.00 0.00 0.00 1016.7
20260902040529 -17 136 0.0 1.6 0.00 0.00 0.00 1016.6
20260902040028 -17 118 0.0 1.6 0.00 0.00 0.00 1016.7
20260902035526 -17 118 0.0 1.6 0.00 0.00 0.00 1016.6
20260902035027 -17 121 0.0 1.6 0.00 0.00 0.00 1016.6
20260902034527 -17 129 0.0 1.6 0.00 0.00 0.00 1016.5
20260902034025 -17 121 0.0 1.6 0.00 0.00 0.00 1016.4
20260902033521 -17 131 0.0 3.2 0.00 0.00 0.00 1016.4
20260902033019 -17 132 0.0 3.2 0.00 0.00 0.00 1016.2
20260902032519 -17 128 1.6 3.2 0.00 0.00 0.00 1016.2
20260902032016 -17 123 0.0 1.6 0.00 0.00 0.00 1016.4
20260902031517 -17 124 0.0 3.2 0.00 0.00 0.00 1016.2
20260902031013 -17 130 0.0 3.2 0.00 0.00 0.00 1016.1
20260902030513 -17 128 0.0 3.2 0.00 0.00 0.00 1016.1
20260902030012 -17 126 0.0 3.2 0.00 0.00 0.00 1016.1
20260902025510 -17 126 0.0 3.2 0.00 0.00 0.00 1016.1
20260902025008 -17 128 0.0 3.2 0.00 0.00 0.00 1016.1
20260902024509 -17 126 0.0 1.6 0.00 0.00 0.00 1016.2
20260902024005 -17 130 0.0 1.6 0.00 0.00 0.00 1016.2
20260902023503 -17 124 0.0 3.2 0.00 0.00 0.00 1016.2
20260902023002 -17 122 0.0 1.6 0.00 0.00 0.00 1016.1
20260902022601 -17 112 0.0 1.6 0.00 0.00 0.00 1016.2
20260902022102 -17 112 0.0 3.2 0.00 0.00 0.00 1016.4
20260902021558 -17 105 0.0 1.6 0.00 0.00 0.00 1016.2
20260902021056 -17 121 0.0 1.6 0.00 0.00 0.00 1016.3
20260902020555 -17 115 0.0 1.6 0.00 0.00 0.00 1016.1
20260902020100 -17 118 0.0 1.6 0.00 0.00 0.00 1016.1
20260902015553 -17 124 0.0 1.6 0.00 0.00 0.00 1016.1
20260902015050 -17 105 0.0 3.2 0.00 0.00 0.00 1015.9
20260902014551 -17 117 0.0 3.2 0.00 0.00 0.00 1015.8
20260902014051 -17 129 0.0 1.6 0.00 0.00 0.00 1015.8
20260902013546 -17 127 0.0 1.6 0.00 0.00 0.00 1015.7
20260902013044 -17 115 0.0 1.6 0.00 0.00 0.00 1015.8
20260902012542 -17 115 0.0 1.6 0.00 0.00 0.00 1015.7
20260902012041 -17 113 0.0 1.6 0.00 0.00 0.00 1015.6
20260902011540 -17 109 0.0 1.6 0.00 0.00 0.00 1015.5
20260902011039 -17 113 0.0 3.2 0.00 0.00 0.00 1015.6
20260902010536 -17 114 0.0 3.2 0.00 0.00 0.00 1015.6
20260902010037 -17 126 0.0 3.2 0.00 0.00 0.00 1015.6
20260902005534 -17 110 0.0 3.2 0.00 0.00 0.00 1015.5
20260902005033 -17 122 0.0 1.6 0.00 0.00 0.00 1015.5
20260902004531 -17 128 0.0 3.2 0.00 0.00 0.00 1015.5
20260902004030 -17 126 0.0 3.2 0.00 0.00 0.00 1015.5
20260902003528 -17 123 0.0 3.2 0.00 0.00 0.00 1015.3
20260902003032 -17 110 0.0 3.2 0.00 0.00 0.00 1015.3
20260902002525 -17 124 0.0 1.6 0.00 0.00 0.00 1015.3
20260902002023 -17 114 0.0 1.6 0.00 0.00 0.00 1015.3
20260902001539 -17 34 0.0 1.6 0.00 0.00 0.00 1015.3
20260902001020 -17 85 0.0 1.6 0.00 0.00 0.00 1015.3
20260902000519 -17 106 0.0 1.6 0.00 0.00 0.00 1015.2
20260902000026 -17 117 0.0 1.6 0.00 0.00 0.00 1015.2
20260901235516 -17 104 0.0 1.6 0.00 0.00 0.00 1015.2
20260901235015 -17 111 0.0 1.6 0.00 0.00 0.00 1015.2
20260901234514 -17 90 0.0 3.2 0.00 0.00 0.00 1015.3
20260901234012 -17 112 0.0 1.6 0.00 0.00 0.00 1015.2
20260901233611 -17 115 0.0 3.2 0.00 0.00 0.00 1015.2
20260901233008 -17 90 0.0 4.8 0.00 0.00 0.00 1015.3
20260901232508 -17 130 1.6 4.8 0.00 0.00 0.00 1015.4
20260901232006 -17 117 0.0 3.2 0.00 0.00 0.00 1015.3
20260901231506 -17 117 0.0 3.2 0.00 0.00 0.00 1015.3
20260901231003 -17 133 0.0 3.2 0.00 0.00 0.00 1015.4
20260901230502 -17 117 0.0 1.6 0.00 0.00 0.00 1015.3
20260901230100 -17 114 0.0 1.6 0.00 0.00 0.00 1015.4
20260901225558 -17 114 0.0 1.6 0.00 0.00 0.00 1015.5
20260901225057 -17 131 0.0 1.6 0.00 0.00 0.00 1015.6
20260901224600 -17 116 0.0 1.6 0.00 0.00 0.00 1015.6
20260901224054 -17 109 0.0 1.6 0.00 0.00 0.00 1015.6
20260901223556 -17 122 0.0 3.2 0.00 0.00 0.00 1015.6
20260901223051 -17 120 0.0 3.2 0.00 0.00 0.00 1015.6
20260901222549 -17 119 0.0 3.2 0.00 0.00 0.00 1015.7
20260901222048 -17 118 0.0 3.2 0.00 0.00 0.00 1015.7
20260901221547 -17 107 0.0 3.2 0.00 0.00 0.00 1015.6
20260901221047 -17 116 0.0 3.2 0.00 0.00 0.00 1015.7
20260901220544 -17 123 0.0 3.2 0.00 0.00 0.00 1015.7
20260901220107 -17 109 0.0 3.2 0.00 0.00 0.00 1015.7
20260901215542 -17 113 0.0 3.2 0.00 0.00 0.00 1015.6
20260901215040 -17 118 0.0 3.2 0.00 0.00 0.00 1015.7
20260901214537 -17 112 0.0 3.2 0.00 0.00 0.00 1015.7
20260901214036 -17 154 0.0 3.2 0.00 0.00 0.00 1015.7
20260901213536 -17 130 0.0 3.2 0.00 0.00 0.00 1015.8
20260901213033 -17 120 0.0 3.2 0.00 0.00 0.00 1015.8
20260901212531 -17 156 0.0 3.2 0.00 0.00 0.00 1015.8
20260901212030 -17 33 0.0 3.2 0.00 0.00 0.00 1015.8
20260901211536 -17 23 0.0 3.2 0.00 0.00 0.00 1016.0
20260901211027 -17 96 0.0 3.2 0.00 0.00 0.00 1015.9
20260901210526 -17 53 0.0 3.2 0.00 0.00 0.00 1016.0
20260901210024 -17 10 0.0 3.2 0.00 0.00 0.00 1015.9
20260901205526 -17 163 0.0 3.2 0.00 0.00 0.00 1016.0
20260901205021 -17 12 0.0 3.2 0.00 0.00 0.00 1016.0
20260901204524 -17 88 0.0 3.2 0.00 0.00 0.00 1016.1
20260901204019 -17 115 0.0 4.8 0.00 0.00 0.00 1016.1
20260901203517 -17 99 0.0 4.8 0.00 0.00 0.00 1016.1
20260901203021 -17 64 0.0 4.8 0.00 0.00 0.00 1016.2
20260901202513 -17 103 0.0 3.2 0.00 0.00 0.00 1016.2
20260901202012 -17 119 0.0 4.8 0.00 0.00 0.00 1016.3
20260901201511 -17 12 0.0 4.8 0.00 0.00 0.00 1016.4
20260901201010 -17 49 1.6 3.2 0.00 0.00 0.00 1016.4
20260901200512 -17 5 0.0 3.2 0.00 0.00 0.00 1016.3
20260901200009 -17 100 1.6 3.2 0.00 0.00 0.00 1016.4
20260901195505 -17 138 1.6 3.2 0.00 0.00 0.00 1016.5
20260901195004 -17 107 0.0 4.8 0.00 0.00 0.00 1016.4
20260901194502 -17 5 1.6 4.8 0.00 0.00 0.00 1016.4
20260901194002 -17 47 0.0 4.8 0.00 0.00 0.00 1016.5
20260901193559 -17 120 1.6 4.8 0.00 0.00 0.00 1016.5
20260901193107 -17 49 1.6 4.8 0.00 0.00 0.00 1016.5
20260901192556 -17 42 0.0 4.8 0.00 0.00 0.00 1016.6
20260901192057 -17 100 0.0 4.8 0.00 0.00 0.00 1016.6
20260901191553 -17 350 1.6 3.2 0.00 0.00 0.00 1016.7
20260901191053 -17 133 0.0 3.2 0.00 0.00 0.00 1016.7
20260901190550 -17 127 0.0 3.2 0.00 0.00 0.00 1016.8
20260901190048 -17 338 0.0 3.2 0.00 0.00 0.00 1017.0
20260901185546 -17 355 1.6 4.8 0.00 0.00 0.00 1017.0
20260901185045 -17 12 1.6 4.8 0.00 0.00 0.00 1017.1
20260901184545 -17 19 1.6 6.4 0.00 0.00 0.00 1017.1
20260901184043 -17 80 1.6 6.4 0.00 0.00 0.00 1017.1
20260901183541 -17 48 1.6 4.8 0.00 0.00 0.00 1017.1
20260901183040 -17 20 1.6 4.8 0.00 0.00 0.00 1017.2
20260901182539 -17 126 1.6 3.2 0.00 0.00 0.00 1017.1
20260901182039 -17 146 1.6 4.8 0.00 0.00 0.00 1017.0
20260901181541 -17 350 0.0 4.8 0.00 0.00 0.00 1017.0
20260901181037 -17 83 0.0 4.8 0.00 0.00 0.00 1017.0
20260901180535 -17 143 1.6 3.2 0.00 0.00 0.00 1016.9
20260901180034 -17 117 0.0 3.2 0.00 0.00 0.00 1016.9
20260901175532 -17 118 0.0 4.8 0.00 0.00 0.00 1016.8
20260901175031 -17 134 1.6 4.8 0.00 0.00 0.00 1016.8
20260901174530 -17 144 1.6 4.8 0.00 0.00 0.00 1016.9
20260901174029 -17 5 1.6 3.2 0.00 0.00 0.00 1017.0
20260901173529 -17 80 0.0 4.8 0.00 0.00 0.00 1017.0
20260901173025 -17 26 1.6 4.8 0.00 0.00 0.00 1017.0
20260901172525 -17 346 1.6 4.8 0.00 0.00 0.00 1017.0
20260901172023 -17 109 0.0 3.2 0.00 0.00 0.00 1016.9
20260901171522 -17 35 1.6 4.8 0.00 0.00 0.00 1016.9
20260901171021 -17 355 1.6 4.8 0.00 0.00 0.00 1017.0
20260901170519 -17 119 1.6 4.8 0.00 0.00 0.00 1017.1
20260901170049 -17 114 0.0 4.8 0.00 0.00 0.00 1017.1
20260901165515 -17 346 1.6 4.8 0.00 0.00 0.00 1017.1
20260901165014 -17 170 1.6 4.8 0.00 0.00 0.00 1017.1
20260901164514 -17 59 1.6 4.8 0.00 0.00 0.00 1017.2
20260901164011 -17 98 0.0 6.4 0.00 0.00 0.00 1017.3
20260901163510 -17 355 0.0 4.8 0.00 0.00 0.00 1017.4
20260901163016 -17 15 0.0 4.8 0.00 0.00 0.00 1017.4
20260901162507 -17 130 1.6 4.8 0.00 0.00 0.00 1017.5
20260901162006 -17 126 0.0 3.2 0.00 0.00 0.00 1017.5
20260901161504 -17 75 0.0 3.2 0.00 0.00 0.00 1017.6
20260901161005 -17 123 0.0 3.2 0.00 0.00 0.00 1017.7
20260901160502 -17 126 0.0 3.2 0.00 0.00 0.00 1017.9
20260901160101 -17 105 0.0 4.8 0.00 0.00 0.00 1017.9
20260901155558 -17 45 1.6 4.8 0.00 0.00 0.00 1017.9
20260901155057 -17 154 0.0 3.2 0.00 0.00 0.00 1017.9
20260901154606 -17 111 0.0 3.2 0.00 0.00 0.00 1018.1
20260901154054 -17 119 0.0 1.6 0.00 0.00 0.00 1018.1
20260901153555 -17 130 0.0 1.6 0.00 0.00 0.00 1018.1
20260901153051 -17 127 0.0 3.2 0.00 0.00 0.00 1018.2
20260901152549 -17 158 0.0 3.2 0.00 0.00 0.00 1018.2
20260901152048 -17 143 0.0 3.2 0.00 0.00 0.00 1018.3
20260901151554 -17 149 0.0 3.2 0.00 0.00 0.00 1018.3
20260901151046 -17 150 0.0 1.6 0.00 0.00 0.00 1018.2
20260901150546 -17 141 0.0 1.6 0.00 0.00 0.00 1018.3
20260901150058 -17 146 0.0 1.6 0.00 0.00 0.00 1018.3
20260901145541 -17 156 0.0 1.6 0.00 0.00 0.00 1018.3
20260901145039 -17 148 0.0 1.6 0.00 0.00 0.00 1018.5
20260901144544 -17 123 0.0 1.6 0.00 0.00 0.00 1018.5
20260901144040 -17 128 0.0 3.2 0.00 0.00 0.00 1018.5
20260901143537 -17 140 0.0 3.2 0.00 0.00 0.00 1018.5
20260901143035 -17 129 0.0 1.6 0.00 0.00 0.00 1018.5
20260901142534 -17 130 0.0 1.6 0.00 0.00 0.00 1018.4
20260901142032 -17 141 0.0 1.6 0.00 0.00 0.00 1018.4
20260901141531 -17 138 0.0 1.6 0.00 0.00 0.00 1018.5
20260901141032 -17 90 0.0 3.2 0.00 0.00 0.00 1018.4
20260901140527 -17 20 0.0 3.2 0.00 0.00 0.00 1018.4
20260901140026 -17 101 0.0 3.2 0.00 0.00 0.00 1018.3